N5GAH-13 Weather Reports


Display with metric or nautical units.
time (UTC)temp
F
wind
direction
speed
MPH
gust
MPH
rain 1hr
in
rain 24hr
in
rain mn
in
humidity
%
barometer
mb
20260502122330 45 333 2.0 3.0 0.00 0.30 0.06 90 1027.5
20260502115329 45 332 2.0 5.0 0.00 0.30 0.06 90 1027.2
20260502112329 46 0 0.0 0.0 0.00 0.30 0.05 90 1027.0
20260502105329 46 343 2.0 3.0 0.00 0.30 0.05 90 1027.0
20260502102329 47 313 0.0 2.0 0.00 0.30 0.05 90 1026.7
20260502065329 48 295 1.0 3.0 0.00 0.30 0.02 88 1027.0
20260502062330 48 300 1.0 3.0 0.00 0.30 0.01 87 1026.8
20260502055329 49 322 2.0 4.0 0.00 0.30 0.01 87 1026.7
20260502052329 50 315 3.0 5.0 0.00 0.30 0.00 87 1026.7
20260502042329 51 244 1.0 3.0 0.00 0.30 0.29 86 1026.2
20260502035329 51 229 1.0 3.0 0.00 0.30 0.29 86 1025.7
20260502032329 51 0 0.0 0.0 0.00 0.30 0.28 85 1025.5
20260502025329 51 61 0.0 2.0 0.00 0.30 0.28 83 1025.0
20260502022329 50 61 0.0 2.0 0.00 0.30 0.28 83 1024.3
20260502012330 50 67 3.0 6.0 0.00 0.30 0.27 82 1023.7
20260502005330 50 46 4.0 8.0 0.00 0.30 0.26 83 1024.2
20260502002330 50 31 6.0 11.0 0.00 0.30 0.25 83 1024.1
20260501235329 52 18 5.0 9.0 0.00 0.30 0.25 84 1023.8
20260501232330 53 22 6.0 12.0 0.00 0.30 0.24 82 1023.4
20260501225330 54 52 5.0 10.0 0.00 0.30 0.24 79 1022.8
20260501222330 54 60 8.0 14.0 0.00 0.30 0.23 76 1022.2
20260501215329 54 58 10.0 17.0 0.00 0.30 0.22 74 1022.0
20260501212330 55 61 9.0 16.0 0.00 0.30 0.22 77 1021.7
20260501205330 54 76 9.0 16.0 0.00 0.30 0.21 78 1022.0
20260501202330 54 77 11.0 20.0 0.00 0.30 0.20 82 1021.9
20260501195330 52 81 11.0 21.0 0.00 0.30 0.19 87 1022.2
20260501192330 50 78 12.0 20.0 0.00 0.30 0.18 91 1022.1
20260501185330 49 79 11.0 23.0 0.00 0.30 0.17 92 1022.1
20260501182329 48 84 8.0 16.0 0.00 0.30 0.17 93 1022.4
20260501175329 48 83 11.0 23.0 0.00 0.30 0.16 93 1023.1
20260501172330 48 81 7.0 16.0 0.00 0.30 0.15 93 1023.2
20260501165329 47 79 11.0 19.0 0.00 0.20 0.14 93 1023.0
20260501162330 46 73 9.0 16.0 0.00 0.20 0.13 94 1023.4
20260501155329 47 76 11.0 19.0 0.00 0.20 0.12 93 1023.4
20260501152329 50 74 8.0 17.0 0.00 0.20 0.12 94 1022.7
20260501145330 50 74 8.0 13.0 0.00 0.20 0.11 94 1022.3
20260501142331 50 76 8.0 16.0 0.00 0.20 0.10 94 1021.7
20260501135330 50 89 9.0 19.0 0.00 0.20 0.09 93 1020.7